Flag for West Bank Weather past 2 weeks in Bethlehem, West Bank

Now
64 °F

Partly sunny.


Feels Like: 64 °F
Forecast: 44 / 57 °F
Wind: 12 mph from Northwest

Location: Ben Gurion International Airport

Current Time: Mar 4, 2015 at 1:54:15 PM

Latest Report: Mar 4, 2015 at 1:20 PM


Visibility: N/A

Pressure: 30.12 "Hg

Humidity: 68%

Dew point: 54 °F

Location of BethlehemLocation

Historic Weather in Bethlehem — Graph

°F

Bethlehem temperature yesterday

Maximum temperature yesterday: 66 °F (at 10:20 AM)
Minimum temperature yesterday: 52 °F (at 4:20 AM)
Average temperature yesterday: 59 °F

Past Weeks' High & Low Weather Summary

 TemperatureHumidityPressure
High86 °F (Feb 27, 1:50 PM)94% (Feb 18, 4:20 AM)30.21 "Hg (Feb 18, 4:20 AM)
Low41 °F (Feb 19, 11:20 PM)19% (Feb 27, 11:50 AM)29.71 "Hg (Feb 20, 4:50 AM)
Average58 °F67%30.02 "Hg
* Reported Feb 17 12:20 PM — Mar 4 12:50 PM, Bethlehem, Weather by CustomWeather, © 2015

Note: Actual official high and low records may vary slightly from our data, if they occured in-between our weather recording intervals... More about our weather records

Advertising

Bethlehem weather history for previous 24 hours

 ConditionsComfort  
Time TempWeatherWind HumidityBarometerVisibility
12:50 PM
Wed, Mar 4
64 °FPartly sunny.15 mph68%30.12 "HgN/A
12:20 PM64 °FPartly sunny.14 mph73%30.12 "HgN/A
11:50 AM63 °FLight rain. Scattered clouds.15 mph77%30.15 "HgN/A
11:20 AM64 °FScattered clouds.8 mph73%30.15 "HgN/A
10:50 AM63 °FScattered clouds.5 mph83%30.15 "HgN/A
10:20 AM63 °FScattered clouds.7 mph73%30.15 "HgN/A
9:50 AM63 °FPassing clouds.7 mph77%30.18 "HgN/A
9:20 AM61 °FPassing clouds.9 mph83%30.18 "HgN/A
8:50 AM59 °FPassing clouds.9 mph82%30.15 "HgN/A
8:20 AM57 °FScattered clouds.8 mph88%30.15 "HgN/A
7:50 AM57 °FScattered clouds.9 mph88%30.15 "HgN/A
7:20 AM55 °FScattered clouds.8 mph88%30.15 "HgN/A
6:50 AM55 °FLight rain. Scattered clouds.9 mph88%30.15 "HgN/A
6:20 AM55 °FScattered clouds.8 mph88%30.12 "HgN/A
5:50 AM55 °FPassing clouds.8 mph88%30.12 "HgN/A
5:20 AM55 °FPassing clouds.7 mph88%30.12 "HgN/A
4:50 AM55 °FPassing clouds.5 mph88%30.09 "HgN/A
4:20 AM55 °FLight rain. Overcast.5 mph82%30.09 "HgN/A
3:50 AM55 °FPassing clouds.7 mph82%30.09 "HgN/A
3:20 AM55 °FPassing clouds.7 mph82%30.12 "HgN/A
2:50 AM55 °FPassing clouds.8 mph82%30.12 "HgN/A
2:20 AM55 °FPartly cloudy.8 mph82%30.12 "HgN/A
1:50 AM55 °FPartly cloudy.8 mph82%30.12 "HgN/A
1:20 AM55 °FPassing clouds.10 mph82%30.12 "HgN/A
12:50 AM55 °FPassing clouds.9 mph82%30.15 "HgN/A
12:20 AM55 °FPassing clouds.7 mph82%30.15 "HgN/A
11:20 PM
Tue, Mar 3
55 °FPassing clouds.7 mph82%30.15 "HgN/A
10:50 PM55 °FPassing clouds.7 mph82%30.15 "HgN/A
10:20 PM57 °FPassing clouds.6 mph82%30.15 "HgN/A
9:50 PM57 °FPassing clouds.8 mph82%30.15 "HgN/A
9:20 PM57 °FPassing clouds.3 mph82%30.15 "HgN/A
8:50 PM57 °FPassing clouds.3 mph82%30.15 "HgN/A
8:20 PM59 °FPassing clouds.6 mph77%30.12 "HgN/A
7:50 PM59 °FPassing clouds.5 mph77%30.15 "HgN/A
7:20 PM59 °FPassing clouds.5 mph77%30.15 "HgN/A
6:50 PM59 °FPassing clouds.3 mph77%30.12 "HgN/A
6:20 PM59 °FPassing clouds.3 mph77%30.12 "HgN/A
5:50 PM61 °FPassing clouds.6 mph72%30.12 "HgN/A
5:20 PM61 °FPassing clouds.8 mph72%30.12 "HgN/A
4:50 PM63 °FPassing clouds.8 mph68%30.12 "HgN/A
4:20 PM64 °FPassing clouds.10 mph60%30.12 "HgN/A
3:50 PM64 °FPassing clouds.10 mph60%30.12 "HgN/A
3:20 PM66 °FPassing clouds.10 mph56%30.09 "HgN/A
2:50 PM66 °FPassing clouds.9 mph56%30.12 "HgN/A
2:20 PM64 °FPassing clouds.12 mph56%30.12 "HgN/A
1:50 PM66 °FPassing clouds.10 mph52%30.12 "HgN/A
1:20 PM66 °FScattered clouds.8 mph49%30.12 "HgN/A
Weather by CustomWeather, © 2015

See weather overviewHow to use our weather pages